W5HRH Weather Reports


time (UTC)temp
C
wind
direction
speed
KPH
gust
KPH
rain 1hr
cm
rain 24hr
cm
rain mn
cm
humidity
%
barometer
mb
20260502182553 22 31 11.3 22.5 0.00 3.91 0.00 54 1022.0
20260502182052 22 55 8.0 22.5 0.00 3.91 0.00 54 1021.9
20260502181554 22 78 6.4 19.3 0.00 3.91 0.00 54 1022.1
20260502181052 22 46 6.4 24.1 0.00 3.91 0.00 54 1022.1
20260502180551 22 42 11.3 24.1 0.00 3.91 0.00 54 1022.1
20260502164033 20 342 8.0 19.3 0.00 5.38 0.00 63 1022.4
20260502163532 20 360 9.7 22.5 0.00 5.38 0.00 62 1022.4
20260502163040 20 355 6.4 19.3 0.00 5.38 0.00 63 1022.5
20260502162531 20 53 4.8 20.9 0.00 5.38 0.00 64 1022.5
20260502162031 19 342 8.0 20.9 0.00 5.38 0.00 64 1022.5
20260502161543 19 27 8.0 20.9 0.00 5.38 0.00 66 1022.5
20260502161035 19 71 9.7 20.9 0.00 5.38 0.00 65 1022.6
20260502160526 19 329 9.7 19.3 0.00 5.38 0.00 66 1022.5
20260502160136 19 16 8.0 20.9 0.00 5.38 0.00 68 1022.5
20260502152017 18 21 6.4 20.9 0.00 5.41 0.00 74 1022.2
20260502151516 17 28 6.4 22.5 0.00 5.41 0.00 74 1022.1
20260502151015 17 150 4.8 22.5 0.00 5.41 0.00 75 1022.2
20260502150514 17 38 8.0 16.1 0.00 5.41 0.00 75 1022.3
20260502130548 12 332 6.4 16.1 0.00 5.94 0.00 90 1020.9
20260502130106 12 21 4.8 16.1 0.00 5.94 0.00 90 1020.8
20260502123544 12 320 3.2 12.9 0.00 5.97 0.00 91 1020.6
20260502123112 12 341 4.8 12.9 0.00 5.97 0.00 91 1020.4
20260502122544 12 343 1.6 12.9 0.00 5.97 0.00 91 1020.4
20260502122043 11 327 3.2 9.7 0.00 5.97 0.00 92 1020.4
20260502121544 11 19 3.2 12.9 0.00 5.97 0.00 91 1020.3
20260502121042 11 324 3.2 12.9 0.00 5.97 0.00 91 1020.4
20260502120541 11 348 1.6 8.0 0.00 5.97 0.00 91 1020.3
20260502115540 11 58 1.6 9.7 0.00 5.99 0.00 91 1020.3
20260502115040 11 43 3.2 9.7 0.00 5.99 0.00 91 1020.1
20260502114542 11 17 3.2 8.0 0.00 5.99 0.00 91 1020.1
20260502114039 11 355 1.6 4.8 0.00 5.99 0.00 91 1020.0
20260502113540 11 32 1.6 12.9 0.00 5.99 0.00 91 1020.1
20260502113038 11 11 3.2 12.9 0.00 5.99 0.00 91 1020.0
20260502112538 11 5 3.2 12.9 0.00 5.99 0.00 91 1019.9
20260502112036 11 26 4.8 12.9 0.00 5.99 0.00 91 1019.9
20260502111536 11 355 3.2 14.5 0.00 5.99 0.00 91 1019.9
20260502111039 11 329 1.6 14.5 0.00 5.99 0.00 91 1019.7
20260502110534 11 334 4.8 12.9 0.00 5.99 0.00 91 1019.7
20260502110045 11 355 3.2 8.0 0.00 5.99 0.00 90 1019.7
20260502105533 12 24 1.6 6.4 0.00 6.22 0.00 90 1019.6
20260502105032 12 297 3.2 8.0 0.00 6.22 0.00 90 1019.6
20260502104531 12 331 3.2 12.9 0.00 6.22 0.00 90 1019.5
20260502104031 12 45 3.2 12.9 0.00 6.22 0.00 90 1019.4
20260502103530 12 38 1.6 12.9 0.00 6.22 0.00 90 1019.5
20260502103032 12 19 3.2 12.9 0.00 6.22 0.00 90 1019.2
20260502102529 12 327 3.2 12.9 0.00 6.22 0.00 90 1019.2
20260502102035 12 355 4.8 12.9 0.00 6.22 0.00 90 1019.2
20260502101527 12 42 3.2 9.7 0.00 6.22 0.00 90 1019.2
20260502101027 12 355 1.6 8.0 0.00 6.22 0.00 89 1019.1
20260502100525 12 5 3.2 9.7 0.00 6.22 0.00 89 1019.0
20260502100126 12 40 3.2 9.7 0.00 6.22 0.00 89 1018.9
20260502091520 12 53 1.6 6.4 0.00 7.29 0.00 88 1018.1
20260502091020 12 64 0.0 6.4 0.00 7.29 0.00 88 1018.0
20260502090518 12 45 1.6 6.4 0.00 7.29 0.00 87 1018.0
20260502071511 12 46 3.2 9.7 0.00 7.67 0.00 91 1017.9
20260502071011 12 59 1.6 12.9 0.00 7.67 0.00 91 1017.9
20260502070510 12 69 1.6 12.9 0.00 7.67 0.00 91 1017.7
20260502070010 12 34 3.2 9.7 0.00 7.75 0.00 91 1017.9
20260502065510 12 49 3.2 16.1 0.00 7.75 0.00 91 1017.9
20260502065012 12 35 4.8 17.7 0.00 7.75 0.00 91 1017.9
20260502064508 12 16 8.0 17.7 0.00 7.75 0.00 91 1017.9
20260502064007 12 48 4.8 14.5 0.00 7.75 0.00 91 1017.8
20260502063507 12 51 8.0 20.9 0.00 7.75 0.00 91 1017.7
20260502063007 12 37 6.4 20.9 0.00 7.75 0.00 92 1017.5
20260502062506 13 50 6.4 17.7 0.00 7.75 0.00 92 1017.6
20260502062006 13 30 4.8 19.3 0.00 7.75 0.00 92 1017.4
20260502061507 13 20 9.7 19.3 0.00 7.75 0.00 92 1017.5
20260502061004 13 5 4.8 16.1 0.00 7.75 0.00 92 1017.6
20260502060503 13 26 4.8 24.1 0.00 7.75 0.00 92 1017.4
20260502060003 13 49 3.2 24.1 0.00 8.15 0.00 92 1017.4
20260502055503 13 49 6.4 16.1 0.00 8.15 0.00 93 1017.4
20260502055002 13 30 6.4 14.5 0.00 8.15 0.00 93 1017.4
20260502054503 13 45 3.2 16.1 0.00 8.15 0.00 93 1017.5
20260502054001 13 25 8.0 20.9 0.00 8.15 0.00 93 1017.4
20260502053503 13 61 8.0 16.1 0.00 8.15 0.00 93 1017.3
20260502053100 13 64 4.8 17.7 0.00 8.15 0.00 94 1017.4
20260502052600 13 59 6.4 17.7 0.00 8.15 0.00 94 1017.5
20260502052059 13 43 6.4 16.1 0.00 8.15 0.00 94 1017.5
20260502051602 13 315 4.8 16.1 0.00 8.15 0.00 94 1017.3
20260502051100 13 62 4.8 19.3 0.00 8.15 0.00 94 1017.2
20260502050558 13 44 4.8 20.9 0.00 8.15 0.00 95 1017.3
20260502050100 13 27 4.8 20.9 0.00 8.15 0.00 95 1017.3
20260502045556 13 336 3.2 11.3 0.00 8.20 8.15 95 1017.3
20260502045056 13 39 3.2 16.1 0.00 8.20 8.15 95 1017.2
20260502044555 13 55 3.2 14.5 0.00 8.20 8.15 95 1017.3
20260502044055 13 17 3.2 12.9 0.00 8.20 8.15 95 1017.4
20260502043555 13 82 3.2 17.7 0.00 8.20 8.15 95 1017.4
20260502043105 13 360 4.8 17.7 0.00 8.20 8.15 95 1017.6
20260502042554 13 43 4.8 16.1 0.00 8.20 8.15 95 1017.5
20260502042054 13 46 6.4 19.3 0.00 8.20 8.15 95 1017.4
20260502041556 13 54 6.4 19.3 0.00 8.20 8.15 95 1017.3
20260502041054 13 63 8.0 19.3 0.00 8.20 8.15 95 1017.3
20260502040552 13 38 4.8 22.5 0.00 8.20 8.15 95 1017.3
20260502040101 13 48 6.4 22.5 0.03 8.20 8.15 95 1017.4
20260502035551 13 65 6.4 19.3 0.03 8.20 8.15 95 1017.4
20260502035050 13 349 6.4 22.5 0.03 8.20 8.15 95 1017.5
20260502034553 13 355 4.8 22.5 0.03 8.20 8.15 95 1017.4
20260502034049 13 295 8.0 22.5 0.03 8.20 8.15 95 1017.1
20260502033547 13 55 4.8 14.5 0.03 8.20 8.15 96 1017.0
20260502033048 13 19 4.8 16.1 0.03 8.20 8.15 96 1016.9
20260502032546 13 355 4.8 16.1 0.03 8.20 8.15 96 1016.9
20260502032046 13 27 4.8 14.5 0.03 8.20 8.15 96 1016.8
20260502031546 13 19 4.8 19.3 0.03 8.20 8.15 96 1016.9
20260502031045 13 355 8.0 22.5 0.05 8.20 8.15 96 1016.7
20260502030542 13 355 9.7 22.5 0.05 8.20 8.15 96 1016.2
20260502030042 13 17 6.4 22.5 0.05 8.18 8.13 96 1016.0
20260502025543 13 44 6.4 22.5 0.05 8.18 8.13 96 1015.7
20260502025041 13 344 6.4 20.9 0.08 8.18 8.13 96 1015.9
20260502024550 13 25 6.4 17.7 0.08 8.18 8.13 95 1015.5
20260502024039 13 29 6.4 22.5 0.08 8.18 8.13 95 1015.8
20260502023539 13 49 9.7 22.5 0.10 8.18 8.13 95 1015.8
20260502023037 13 360 6.4 25.7 0.10 8.18 8.13 95 1015.7
20260502022535 13 55 9.7 20.9 0.10 8.18 8.13 95 1015.4
20260502022038 13 355 9.7 20.9 0.10 8.18 8.13 96 1015.4
20260502021535 13 355 8.0 19.3 0.13 8.18 8.13 96 1015.6
20260502021033 13 13 6.4 19.3 0.13 8.15 8.10 96 1015.8
20260502020635 13 28 4.8 19.3 0.18 8.15 8.10 95 1015.6
20260502020030 14 33 6.4 16.1 0.20 8.13 8.08 96 1015.0
20260502015529 14 19 4.8 25.7 0.20 8.13 8.08 96 1015.2
20260502015028 14 360 11.3 27.4 0.18 8.10 8.05 96 1015.2
20260502014532 14 333 12.9 27.4 0.18 8.10 8.05 96 1015.2
20260502014026 14 346 8.0 19.3 0.20 8.10 8.05 96 1014.9
20260502013626 14 65 9.7 19.3 0.18 8.08 8.03 96 1014.7
20260502013025 14 355 6.4 14.5 0.20 8.08 8.03 96 1014.6
20260502012524 14 329 3.2 17.7 0.20 8.08 8.03 96 1014.5
20260502012026 14 342 4.8 17.7 0.20 8.05 8.00 96 1014.4
20260502011523 14 5 6.4 17.7 0.23 8.05 8.00 96 1014.2
20260502011024 14 24 8.0 17.7 0.23 8.03 7.98 96 1014.3
20260502010522 14 360 6.4 17.7 0.20 7.98 7.92 96 1014.5
20260502010023 14 342 4.8 20.9 0.20 7.92 7.87 96 1014.9
20260502005520 14 310 8.0 20.9 0.23 7.92 7.87 96 1014.9
20260502005019 14 339 6.4 16.1 0.25 7.92 7.87 96 1014.3
20260502004540 14 345 6.4 20.9 0.28 7.92 7.87 96 1013.9
20260502004016 14 20 9.7 20.9 0.25 7.90 7.85 96 1013.6
20260502003614 15 49 4.8 16.1 0.25 7.90 7.85 96 1013.1
20260502003014 15 23 4.8 16.1 0.25 7.87 7.82 96 1013.3
20260502002513 15 20 6.4 14.5 0.28 7.87 7.82 96 1013.5
20260502002015 15 25 4.8 11.3 0.25 7.85 7.80 96 1013.6
20260502001516 15 15 4.8 17.7 0.30 7.82 7.77 96 1013.6
20260502001012 15 327 4.8 14.5 0.30 7.80 7.75 96 1013.9
20260502000511 15 5 4.8 19.3 0.38 7.77 7.72 96 1013.2
20260502000010 15 63 8.0 19.3 0.38 7.72 7.67 96 1013.3
20260501235509 15 343 6.4 17.7 0.38 7.70 7.65 96 1014.1
20260501235009 15 338 4.8 17.7 0.36 7.67 7.62 96 1014.4
20260501234508 15 40 3.2 17.7 0.33 7.65 7.59 96 1014.0
20260501234011 15 300 6.4 17.7 0.33 7.65 7.59 96 1013.3
20260501233508 15 59 6.4 25.7 0.33 7.65 7.59 96 1011.9
20260501233007 15 59 8.0 25.7 0.30 7.62 7.57 96 1012.4
20260501232508 15 36 4.8 16.1 0.28 7.59 7.54 96 1012.6
20260501232009 15 30 3.2 20.9 0.25 7.57 7.52 96 1012.6
20260501231514 15 51 9.7 20.9 0.20 7.52 7.47 96 1012.7
20260501231005 15 348 8.0 20.9 0.15 7.47 7.42 96 1012.8
20260501230508 15 16 6.4 19.3 0.08 7.39 7.34 96 1013.2
20260501230003 15 19 3.2 11.3 0.05 7.34 7.29 96 1013.0
20260501225503 15 53 4.8 12.9 0.03 7.32 7.26 96 1012.9
20260501225002 15 96 4.8 20.9 0.03 7.32 7.26 96 1012.4
20260501224502 15 98 6.4 20.9 0.03 7.32 7.26 96 1012.2
20260501224002 15 34 4.8 20.9 0.05 7.32 7.26 96 1012.1
20260501223501 15 69 8.0 20.9 0.08 7.32 7.26 96 1012.1
20260501223106 15 74 4.8 20.9 0.10 7.32 7.26 97 1012.3
20260501222600 15 340 8.0 19.3 0.15 7.32 7.26 96 1011.9
20260501222101 16 15 11.3 19.3 0.20 7.32 7.26 96 1011.8
20260501221600 16 10 4.8 17.7 0.23 7.32 7.26 97 1011.9
20260501221058 16 41 6.4 19.3 0.28 7.32 7.26 96 1012.2
20260501220557 16 35 8.0 22.5 0.30 7.32 7.26 96 1012.3
20260501215556 16 74 8.0 20.9 0.33 7.29 7.24 97 1012.6
20260501215057 16 28 6.4 17.7 0.36 7.29 7.24 97 1012.4
20260501214556 16 24 6.4 17.7 0.38 7.29 7.24 97 1012.4
20260501214055 16 27 8.0 16.1 0.41 7.26 7.21 97 1012.6
20260501213555 16 76 6.4 14.5 0.41 7.24 7.19 97 1012.8
20260501213056 16 360 4.8 17.7 0.46 7.21 7.16 96 1013.0
20260501212554 16 31 4.8 9.7 0.64 7.16 7.11 97 1012.9
20260501212054 16 31 1.6 14.5 0.69 7.11 7.06 97 1012.7
20260501211603 16 136 3.2 12.9 0.81 7.06 7.01 97 1012.7
20260501211055 16 26 1.6 14.5 0.99 7.04 6.99 97 1012.1
20260501210555 16 5 3.2 16.1 1.07 7.01 6.96 97 1011.8
20260501210058 16 40 3.2 16.1 1.07 6.99 6.93 97 1011.6
20260501205553 16 52 6.4 19.3 1.04 6.96 6.91 97 1011.2
20260501205052 16 30 9.7 19.3 1.02 6.93 6.88 97 1010.9
20260501204552 16 19 6.4 19.3 0.97 6.88 6.83 97 1010.9
20260501204051 16 355 4.8 19.3 0.94 6.86 6.81 97 1011.8
20260501203551 16 48 8.0 19.3 0.91 6.83 6.78 96 1011.5
20260501203051 16 91 4.8 19.3 0.84 6.73 6.68 96 1012.0
20260501202549 16 56 3.2 19.3 0.64 6.53 6.45 97 1011.9
20260501202050 16 67 4.8 19.3 0.64 6.40 6.35 97 1012.0
20260501201548 16 347 3.2 19.3 0.51 6.20 6.15 97 1012.1
20260501201050 16 53 8.0 17.7 0.41 6.02 5.97 97 1011.9
20260501200548 16 355 4.8 14.5 0.33 5.94 5.87 97 1011.5
20260501200046 16 59 3.2 14.5 0.33 5.92 5.87 97 1010.6
20260501195549 16 35 3.2 16.1 0.33 5.92 5.87 97 1010.9
20260501195046 16 87 3.2 16.1 0.33 5.92 5.87 97 1010.7
20260501194545 16 20 1.6 16.1 0.33 5.92 5.87 97 1010.8
20260501194044 16 34 4.8 14.5 0.41 5.92 5.87 97 1010.4
20260501193547 16 60 4.8 16.1 0.71 5.92 5.87 97 1010.6
20260501193051 16 108 6.4 16.1 0.94 5.87 5.82 97 1010.8
20260501192544 16 60 3.2 16.1 0.97 5.87 5.82 97 1010.7
20260501192044 16 31 4.8 16.1 0.89 5.77 5.71 97 1011.0
20260501191544 16 5 6.4 14.5 0.79 5.66 5.61 97 1010.9
20260501191044 16 47 3.2 14.5 0.79 5.61 5.56 97 1011.2
20260501190546 16 12 3.2 14.5 1.09 5.61 5.56 97 1011.8
20260501190058 16 339 4.8 14.5 1.30 5.59 5.54 97 1011.0
20260501185543 16 42 4.8 14.5 1.37 5.59 5.54 97 1010.8
20260501185043 16 101 3.2 11.3 1.40 5.59 5.54 97 1011.2
20260501184547 16 63 1.6 17.7 1.42 5.59 5.54 96 1011.4
20260501184044 16 117 6.4 17.7 1.45 5.49 5.44 96 1010.6
20260501183542 16 113 4.8 6.4 1.57 5.13 5.08 96 1010.4
20260501183044 16 87 0.0 6.4 1.52 4.93 4.88 96 1012.1